Epoch 2004 Apr. 25.0 TT = JDT 2453120.5 T 2004 Apr. 28.99582 TT MPC q 1.4811476 (2000.0) P Q z +0.0000581 Peri. 43.76789 +0.80246289 -0.57117352 +/-0.0000118 Node 347.05863 +0.03338083 +0.33188778 e 0.9999140 Incl. 50.44345 +0.59576759 +0.75074051 >From 192 observations 2003 Oct. 14-2004 Apr. 28, mean residual 0".58.
m1 = 6.5 + 5 logΔ + 6.5 log r [ , 0] ( 〜2004年 4月29日) m1 = 5.3 + 5 logΔ + 14.0 log r [ 0,260] (2004年 4月29日〜2005年 1月13日) m1 = 9.2 + 5 logΔ + 7.0 log r [260, ] (2005年 1月13日〜 )